Satellite: NOAA-11 Catalog number: 19531 Epoch time: 07143.73365416 Element set: 0663 Inclination: 098.8111 deg RA of node: 233.2008 deg Eccentricity: 0.0012651 Arg of perigee: 100.0063 deg Mean anomaly: 260.2546 deg Mean motion: 14.14845968 rev/day Decay rate: 1.30e-06 rev/day^2 Epoch rev: 96269 Checksum: 278
Satellite: NOAA-12 Catalog number: 21263 Epoch time: 07143.94753741 Element set: 0160 Inclination: 098.7523 deg RA of node: 141.2304 deg Eccentricity: 0.0012899 Arg of perigee: 173.4545 deg Mean anomaly: 186.6819 deg Mean motion: 14.25527762 rev/day Decay rate: 9.7e-07 rev/day^2 Epoch rev: 83279 Checksum: 322
Satellite: MET-3/5 Catalog number: 21655 Epoch time: 07143.93808667 Element set: 0340 Inclination: 082.5526 deg RA of node: 020.0739 deg Eccentricity: 0.0012283 Arg of perigee: 272.5864 deg Mean anomaly: 087.3852 deg Mean motion: 13.17011022 rev/day Decay rate: 5.1e-07 rev/day^2 Epoch rev: 75821 Checksum: 286
Satellite: MET-2/21 Catalog number: 22782 Epoch time: 07143.85421310 Element set: 0834 Inclination: 082.5487 deg RA of node: 061.2182 deg Eccentricity: 0.0021293 Arg of perigee: 307.8430 deg Mean anomaly: 052.0816 deg Mean motion: 13.83616051 rev/day Decay rate: 3.8e-07 rev/day^2 Epoch rev: 69315 Checksum: 278
Satellite: OKEAN-4 Catalog number: 23317 Epoch time: 07143.88204014 Element set: 0270 Inclination: 082.5376 deg RA of node: 319.2119 deg Eccentricity: 0.0021596 Arg of perigee: 337.5501 deg Mean anomaly: 022.4776 deg Mean motion: 14.82503935 rev/day Decay rate: 3.83e-06 rev/day^2 Epoch rev: 68045 Checksum: 290
Satellite: NOAA-14 Catalog number: 23455 Epoch time: 07143.87452776 Element set: 0644 Inclination: 098.9886 deg RA of node: 209.9273 deg Eccentricity: 0.0009851 Arg of perigee: 163.8788 deg Mean anomaly: 196.2698 deg Mean motion: 14.13720725 rev/day Decay rate: 3.45e-06 rev/day^2 Epoch rev: 63920 Checksum: 358
Satellite: SICH-1 Catalog number: 23657 Epoch time: 07143.90605572 Element set: 0074 Inclination: 082.5270 deg RA of node: 100.1275 deg Eccentricity: 0.0023250 Arg of perigee: 327.4046 deg Mean anomaly: 032.5739 deg Mean motion: 14.81483937 rev/day Decay rate: 1.68e-06 rev/day^2 Epoch rev: 63243 Checksum: 282
Satellite: NOAA-15 Catalog number: 25338 Epoch time: 07143.73072241 Element set: 0003 Inclination: 098.5302 deg RA of node: 141.1046 deg Eccentricity: 0.0011855 Arg of perigee: 100.7562 deg Mean anomaly: 259.4937 deg Mean motion: 14.24642715 rev/day Decay rate: 1.76e-06 rev/day^2 Epoch rev: 46920 Checksum: 276
Satellite: RESURS Catalog number: 25394 Epoch time: 07144.67200770 Element set: 647 Inclination: 098.4404 deg RA of node: 200.1298 deg Eccentricity: 0.0000562 Arg of perigee: 281.9581 deg Mean anomaly: 078.1530 deg Mean motion: 14.24136398 rev/day Decay rate: 2.1e-07 rev/day^2 Epoch rev: 46100 Checksum: 272
Satellite: FENGYUN1 Catalog number: 25730 Epoch time: 07144.53574128 Element set: 121 Inclination: 098.6884 deg RA of node: 129.3020 deg Eccentricity: 0.0020462 Arg of perigee: 191.0143 deg Mean anomaly: 169.0601 deg Mean motion: 14.07493373 rev/day Decay rate: 7.30e-06 rev/day^2 Epoch rev: 41414 Checksum: 263
Satellite: OKEAN-0 Catalog number: 25860 Epoch time: 07143.58103555 Element set: 59 Inclination: 097.7303 deg RA of node: 146.9815 deg Eccentricity: 0.0001972 Arg of perigee: 081.9083 deg Mean anomaly: 278.2357 deg Mean motion: 14.73452715 rev/day Decay rate: 4.3e-07 rev/day^2 Epoch rev: 42187 Checksum: 306
Satellite: NOAA-16 Catalog number: 26536 Epoch time: 07143.75025319 Element set: 0416 Inclination: 099.1154 deg RA of node: 120.2687 deg Eccentricity: 0.0009759 Arg of perigee: 239.9634 deg Mean anomaly: 120.0535 deg Mean motion: 14.12427634 rev/day Decay rate: -3.8e-07 rev/day^2 Epoch rev: 34365 Checksum: 302
Satellite: NOAA-17 Catalog number: 27453 Epoch time: 07143.85384029 Element set: 0429 Inclination: 098.5795 deg RA of node: 213.7376 deg Eccentricity: 0.0012339 Arg of perigee: 160.6322 deg Mean anomaly: 199.5300 deg Mean motion: 14.23880693 rev/day Decay rate: 1.17e-06 rev/day^2 Epoch rev: 25525 Checksum: 317
Satellite: NOAA-18 Catalog number: 28654 Epoch time: 07143.86100683 Element set: 0963 Inclination: 098.8281 deg RA of node: 085.5532 deg Eccentricity: 0.0014119 Arg of perigee: 341.6970 deg Mean anomaly: 018.3682 deg Mean motion: 14.11064645 rev/day Decay rate: -1.10e-06 rev/day^2 Epoch rev: 10342 Checksum: 292
/EX SB KEPS @ AMSAT $ORB07144.M Orbital Elements 07144.MISC
HR AMSAT ORBITAL ELEMENTS FOR MANNED AND MISCELLANEOUS SATELLITES FROM WA5QGD FORT WORTH,TX May 24, 2007 Send SUBSCRIBE KEPS/UNSUBSCRIBE KEPS to [email protected] only BID: ORB07144.M TO ALL RADIO AMATEURS BT
Satellite: HUBBLE Catalog number: 20580 Epoch time: 07143.92606183 Element set: 0897 Inclination: 028.4679 deg RA of node: 348.3305 deg Eccentricity: 0.0004022 Arg of perigee: 201.4140 deg Mean anomaly: 158.6280 deg Mean motion: 15.00240380 rev/day Decay rate: 4.15e-06 rev/day^2 Epoch rev: 73631 Checksum: 263
Satellite: UARS Catalog number: 21701 Epoch time: 07143.93701229 Element set: 0084 Inclination: 056.9746 deg RA of node: 059.1619 deg Eccentricity: 0.0097283 Arg of perigee: 142.4792 deg Mean anomaly: 218.3107 deg Mean motion: 15.47960052 rev/day Decay rate: 5.223e-05 rev/day^2 Epoch rev: 86199 Checksum: 311
Satellite: PO-34 Catalog number: 25520 Epoch time: 07143.76791238 Element set: 0744 Inclination: 028.4601 deg RA of node: 272.1862 deg Eccentricity: 0.0004819 Arg of perigee: 350.2093 deg Mean anomaly: 009.8409 deg Mean motion: 15.16996018 rev/day Decay rate: 5.19e-06 rev/day^2 Epoch rev: 47381 Checksum: 311
Satellite: ISS Catalog number: 25544 Epoch time: 07144.93219907 Element set: 268 Inclination: 051.6338 deg RA of node: 224.0728 deg Eccentricity: 0.0008032 Arg of perigee: 233.9330 deg Mean anomaly: 115.2632 deg Mean motion: 15.77970838 rev/day Decay rate: 4.9989e-04 rev/day^2 Epoch rev: 48709 Checksum: 328
Satellite: OO-38 Catalog number: 26063 Epoch time: 07143.57061009 Element set: 0917 Inclination: 100.2274 deg RA of node: 141.6470 deg Eccentricity: 0.0036508 Arg of perigee: 228.5267 deg Mean anomaly: 131.2765 deg Mean motion: 14.35805488 rev/day Decay rate: -2.8e-07 rev/day^2 Epoch rev: 38352 Checksum: 295
Satellite: UWE-1 Catalog number: 28892 Epoch time: 07144.35383507 Element set: 754 Inclination: 098.1337 deg RA of node: 041.4673 deg Eccentricity: 0.0017350 Arg of perigee: 183.4146 deg Mean anomaly: 176.6943 deg Mean motion: 14.59504184 rev/day Decay rate: 1.68e-06 rev/day^2 Epoch rev: 8373 Checksum: 318
Satellite: CO-58 Catalog number: 28895 Epoch time: 07143.64772871 Element set: 0734 Inclination: 098.1354 deg RA of node: 040.9783 deg Eccentricity: 0.0017854 Arg of perigee: 185.4023 deg Mean anomaly: 174.7000 deg Mean motion: 14.59552052 rev/day Decay rate: 2.38e-06 rev/day^2 Epoch rev: 08351 Checksum: 322
Satellite: NCUBE2 Catalog number: 28897 Epoch time: 07144.27364155 Element set: 259 Inclination: 098.1338 deg RA of node: 041.5509 deg Eccentricity: 0.0016997 Arg of perigee: 185.2502 deg Mean anomaly: 174.8519 deg Mean motion: 14.59713733 rev/day Decay rate: 1.49e-06 rev/day^2 Epoch rev: 7588 Checksum: 341
Satellite: NMARS Catalog number: 29662 Epoch time: 07126.39603970 Element set: 263 Inclination: 051.6121 deg RA of node: 302.3682 deg Eccentricity: 0.0004459 Arg of perigee: 252.1654 deg Mean anomaly: 110.7411 deg Mean motion: 16.47981436 rev/day Decay rate: 7.031946e-02 rev/day^2 Epoch rev: 2165 Checksum: 289
Satellite: FCAL Catalog number: 29667 Epoch time: 07144.41190552 Element set: 147 Inclination: 051.6328 deg RA of node: 218.9101 deg Eccentricity: 0.0013850 Arg of perigee: 254.3184 deg Mean anomaly: 105.6294 deg Mean motion: 15.87350907 rev/day Decay rate: 1.9714e-04 rev/day^2 Epoch rev: 2422 Checksum: 287
Satellite: FALCON Catalog number: 30776 Epoch time: 07144.80038395 Element set: 58 Inclination: 035.4348 deg RA of node: 354.4344 deg Eccentricity: 0.0001923 Arg of perigee: 283.1471 deg Mean anomaly: 076.9030 deg Mean motion: 15.02707000 rev/day Decay rate: 3.23e-06 rev/day^2 Epoch rev: 1153 Checksum: 257
Satellite: MAST Catalog number: 31126 Epoch time: 07143.74844914 Element set: 39 Inclination: 098.0833 deg RA of node: 217.7197 deg Eccentricity: 0.0096158 Arg of perigee: 101.0470 deg Mean anomaly: 260.1512 deg Mean motion: 14.53341359 rev/day Decay rate: 3.95e-06 rev/day^2 Epoch rev: 530 Checksum: 277
Satellite: CAPE1 Catalog number: 31130 Epoch time: 07143.71690970 Element set: 0029 Inclination: 098.0840 deg RA of node: 217.6049 deg Eccentricity: 0.0104301 Arg of perigee: 101.3192 deg Mean anomaly: 259.9737 deg Mean motion: 14.51851759 rev/day Decay rate: 1.40e-06 rev/day^2 Epoch rev: 00506 Checksum: 271
/EX
participants (1)
-
Ray Hoad